Regional Weather Roundup
Issued by NWS

Home | Current Version | Previous Version | Text Only | Print | Product List | Glossary Off
Versions: 1 2 3 4 5 6 7 8 9 10 11 12 13 14 15 16 17 18 19 20 21 22 23 24 25 26 27 28 29 30 31 32 33 34 35 36 37 38 39 40 41 42 43 44 45 46 47 48 49 50

484
ASUS43 KLSX 240107
RWRMO

WEATHER SUMMARY FOR MISSOURI
NATIONAL WEATHER SERVICE SPRINGFIELD MO
800 PM CDT MON APR 23 2018

NOTE: "FAIR" INDICATES FEW OR NO CLOUDS BELOW 12,000 FEET WITH NO
       SIGNIFICANT WEATHER AND/OR OBSTRUCTIONS TO VISIBILITY.
       CURRENT SKY AND/OR WEATHER CONDITIONS ARE NOT AVAILABLE FOR
       CHILLICOTHE AND FARMINGTON.

MOZ001>031-035>038-043-044-053-054-240200-
...NORTHERN AND WESTERN MISSOURI...

CITY           SKY/WX    TMP DP  RH WIND       PRES   REMARKS
KANSAS CTY INT PTCLDY    66  31  27 NE8       30.02R
KANSAS C DTWN  CLEAR     73  30  20 N9        30.00R
LEE`S SUMMIT   CLEAR     69  31  24 NE7       30.01R
ST JOSEPH      CLEAR     66  35  31 NE10      30.02S
CHILLICOTHE      N/A     68  29  23 E6        30.03R
KIRKSVILLE     PTCLDY    60  34  37 N7        30.03S

$$
MOZ066>068-077>081-088>096-101>105-240200-
...SOUTHWEST MISSOURI...

CITY           SKY/WX    TMP DP  RH WIND       PRES   REMARKS
SPRINGFIELD    CLOUDY    63  43  48 N5        29.98S
JOPLIN         CLEAR     66  43  43 NE8       29.98S
BRANSON        MOCLDY    61  50  67 N6        29.99R

$$
MOZ032>034-039>042-045>050-055>058-069>072-240200-
...CENTRAL MISSOURI...

CITY           SKY/WX    TMP DP  RH WIND       PRES   REMARKS
COLUMBIA       CLOUDY    67  40  37 NE15      29.99R
JEFFERSON CITY CLOUDY    66  50  56 E5        29.97R
ROLLA          CLOUDY    59  51  75 NE8       29.99R
SEDALIA        CLOUDY    64  40  41 N8        30.00S
WHITEMAN AFB   MOCLDY    61  38  42 N8        29.97R
WARRENSBURG    PTCLDY    64  32  29 NE6       30.01R
OSAGE BEACH    CLOUDY    63  51  65 CALM      29.99R

$$
MOZ051-052-059>065-240200-
...EAST CENTRAL MISSOURI...

CITY           SKY/WX    TMP DP  RH WIND       PRES   REMARKS
ST LOUIS INTL  CLOUDY    58  54  86 NE7       29.99R
SPIRIT OF STL  CLOUDY    59  54  83 NE8       29.98R
ST CHARLES     CLOUDY    59  54  83 NE7       29.99R

$$
MOZ072>076-082>087-097>100-106>115-240200-
...SOUTH CENTRAL AND SOUTHEAST MISSOURI...

CITY           SKY/WX    TMP DP  RH WIND       PRES   REMARKS
CAPE GIRARDEAU FAIR      59  56  89 N5        29.91R
FARMINGTON     CLOUDY    56  54  93 N9        29.97R FOG
POPLAR BLUFF   LGT RAIN  60  58  92 NW3       29.91R
WEST PLAINS    CLOUDY    57  52  83 N10G17    29.97R

$$




USA.gov is the U.S. government's official web portal to all federal, state and local government web resources and services.